When you browse on this site, cookies collect data to enhance your experience and personalize the content and advertising you see.
Visit our Privacy Policy to learn more. By continuing to use the site, you agree to this use of cookies and data.
  • In United Kingdom
  • List of Countries
  • For 7 days
  • Water Temperature
  • Weather Map
  • Weather Widgets
  • user-avatar
    Login

    Hourly Weather Luksor

    Today, 19 September, Thursday

    Time Temperature Precipitation Wind Pressure Humidity
    00:00 +30°C° 0 mm 3 mps 749 mmHg 26%
    01:00 +30°C° 0 mm 3 mps 749 mmHg 29%
    02:00 +28°C° 0 mm 2 mps 749 mmHg 32%
    03:00 +28°C° 0 mm 2 mps 749 mmHg 33%
    04:00 +28°C° 0 mm 3 mps 749 mmHg 34%
    05:00 +27°C° 0 mm 3 mps 749 mmHg 35%
    06:00 +29°C° 0 mm 3 mps 749 mmHg 33%
    07:00 +30°C° 0 mm 3 mps 750 mmHg 30%
    08:00 +33°C° 0 mm 3 mps 750 mmHg 27%
    09:00 +35°C° 0 mm 4 mps 750 mmHg 24%
    10:00 +38°C° 0 mm 4 mps 750 mmHg 20%
    11:00 +42°C° 0 mm 5 mps 750 mmHg 16%
    12:00 +43°C° 0 mm 5 mps 749 mmHg 15%
    13:00 +46°C° 0 mm 6 mps 748 mmHg 14%
    14:00 +47°C° 0 mm 6 mps 748 mmHg 12%
    15:00 +46°C° 0 mm 7 mps 748 mmHg 13%
    16:00 +46°C° 0 mm 7 mps 748 mmHg 13%
    17:00 +45°C° 0 mm 8 mps 748 mmHg 14%
    18:00 +43°C° 0 mm 7 mps 748 mmHg 16%
    19:00 +40°C° 0 mm 7 mps 748 mmHg 18%
    20:00 +38°C° 0 mm 6 mps 749 mmHg 21%
    21:00 +35°C° 0 mm 5 mps 749 mmHg 23%
    22:00 +34°C° 0 mm 5 mps 749 mmHg 24%
    23:00 +33°C° 0 mm 4 mps 749 mmHg 26%

    Tomorrow, 20 September, Friday

    Time Temperature Precipitation Wind Pressure Humidity
    00:00 +33°C° 0 mm 4 mps 749 mmHg 28%
    01:00 +32°C° 0 mm 4 mps 748 mmHg 29%
    02:00 +30°C° 0 mm 4 mps 748 mmHg 31%
    03:00 +29°C° 0 mm 4 mps 748 mmHg 33%
    04:00 +29°C° 0 mm 3 mps 748 mmHg 34%
    05:00 +28°C° 0 mm 3 mps 749 mmHg 36%
    06:00 +29°C° 0 mm 4 mps 749 mmHg 36%
    07:00 +30°C° 0 mm 4 mps 749 mmHg 36%
    08:00 +33°C° 0 mm 4 mps 749 mmHg 36%
    09:00 +35°C° 0 mm 5 mps 749 mmHg 32%
    10:00 +39°C° 0 mm 6 mps 749 mmHg 28%
    11:00 +41°C° 0 mm 6 mps 749 mmHg 24%
    12:00 +44°C° 0 mm 6 mps 748 mmHg 21%
    13:00 +46°C° 0 mm 7 mps 748 mmHg 18%
    14:00 +47°C° 0 mm 7 mps 747 mmHg 15%
    15:00 +46°C° 0 mm 8 mps 747 mmHg 16%
    16:00 +45°C° 0 mm 8 mps 747 mmHg 16%
    17:00 +44°C° 0 mm 9 mps 747 mmHg 17%
    18:00 +43°C° 0 mm 8 mps 747 mmHg 18%
    19:00 +40°C° 0 mm 8 mps 748 mmHg 20%
    20:00 +38°C° 0 mm 7 mps 748 mmHg 22%
    21:00 +35°C° 0 mm 6 mps 748 mmHg 24%
    22:00 +34°C° 0 mm 5 mps 748 mmHg 26%
    23:00 +33°C° 0 mm 4 mps 749 mmHg 27%

    Day after tomorrow, 21 September, Saturday

    Time Temperature Precipitation Wind Pressure Humidity
    00:00 +32°C° 0 mm 4 mps 748 mmHg 29%
    01:00 +30°C° 0 mm 4 mps 748 mmHg 30%
    02:00 +29°C° 0 mm 4 mps 748 mmHg 31%
    03:00 +28°C° 0 mm 4 mps 748 mmHg 34%
    04:00 +27°C° 0 mm 3 mps 748 mmHg 37%
    05:00 +26°C° 0 mm 3 mps 748 mmHg 40%
    06:00 +28°C° 0 mm 4 mps 748 mmHg 39%
    07:00 +29°C° 0 mm 4 mps 749 mmHg 38%
    08:00 +30°C° 0 mm 5 mps 749 mmHg 37%
    09:00 +34°C° 0 mm 5 mps 749 mmHg 31%
    10:00 +38°C° 0 mm 6 mps 749 mmHg 25%
    11:00 +40°C° 0 mm 7 mps 749 mmHg 19%
    12:00 +43°C° 0 mm 7 mps 748 mmHg 17%
    13:00 +44°C° 0 mm 7 mps 747 mmHg 15%
    14:00 +45°C° 0 mm 7 mps 747 mmHg 12%
    15:00 +44°C° 0 mm 8 mps 747 mmHg 11%
    16:00 +44°C° 0 mm 8 mps 747 mmHg 11%
    17:00 +43°C° 0 mm 8 mps 747 mmHg 10%
    18:00 +40°C° 0 mm 8 mps 747 mmHg 12%
    19:00 +38°C° 0 mm 7 mps 747 mmHg 14%
    20:00 +35°C° 0 mm 7 mps 748 mmHg 15%
    21:00 +33°C° 0 mm 6 mps 748 mmHg 18%
    22:00 +32°C° 0 mm 5 mps 748 mmHg 21%
    23:00 +30°C° 0 mm 4 mps 748 mmHg 24%

    22 September, Sunday

    Time Temperature Precipitation Wind Pressure Humidity
    00:00 +29°C° 0 mm 3 mps 748 mmHg 25%
    01:00 +28°C° 0 mm 3 mps 748 mmHg 26%
    02:00 +27°C° 0 mm 3 mps 747 mmHg 27%
    03:00 +27°C° 0 mm 3 mps 747 mmHg 31%
    04:00 +26°C° 0 mm 3 mps 748 mmHg 34%
    05:00 +26°C° 0 mm 4 mps 748 mmHg 37%
    06:00 +27°C° 0 mm 4 mps 748 mmHg 34%
    07:00 +29°C° 0 mm 4 mps 749 mmHg 32%
    08:00 +30°C° 0 mm 5 mps 749 mmHg 29%
    09:00 +34°C° 0 mm 5 mps 749 mmHg 25%
    10:00 +36°C° 0 mm 6 mps 749 mmHg 21%
    11:00 +40°C° 0 mm 7 mps 749 mmHg 16%
    12:00 +41°C° 0 mm 7 mps 748 mmHg 14%
    13:00 +44°C° 0 mm 7 mps 747 mmHg 12%
    14:00 +45°C° 0 mm 7 mps 747 mmHg 10%
    15:00 +44°C° 0 mm 7 mps 747 mmHg 11%
    16:00 +43°C° 0 mm 7 mps 747 mmHg 12%
    17:00 +41°C° 0 mm 7 mps 747 mmHg 13%
    18:00 +39°C° 0 mm 7 mps 747 mmHg 17%
    19:00 +36°C° 0 mm 7 mps 748 mmHg 21%
    20:00 +34°C° 0 mm 7 mps 749 mmHg 25%
    21:00 +33°C° 0 mm 6 mps 749 mmHg 27%
    22:00 +32°C° 0 mm 5 mps 749 mmHg 29%
    23:00 +30°C° 0 mm 4 mps 749 mmHg 32%

    23 September, Monday

    Time Temperature Precipitation Wind Pressure Humidity
    00:00 +29°C° 0 mm 4 mps 749 mmHg 33%
    01:00 +28°C° 0 mm 4 mps 749 mmHg 35%
    02:00 +27°C° 0 mm 4 mps 749 mmHg 36%
    03:00 +27°C° 0 mm 4 mps 749 mmHg 40%
    04:00 +26°C° 0 mm 4 mps 749 mmHg 45%
    05:00 +25°C° 0 mm 3 mps 749 mmHg 49%
    06:00 +26°C° 0 mm 4 mps 749 mmHg 47%
    07:00 +27°C° 0 mm 4 mps 750 mmHg 46%
    08:00 +29°C° 0 mm 5 mps 750 mmHg 44%
    09:00 +33°C° 0 mm 5 mps 750 mmHg 37%
    10:00 +35°C° 0 mm 6 mps 750 mmHg 29%
    11:00 +39°C° 0 mm 7 mps 750 mmHg 22%
    12:00 +40°C° 0 mm 7 mps 749 mmHg 19%
    13:00 +41°C° 0 mm 7 mps 748 mmHg 16%
    14:00 +44°C° 0 mm 7 mps 748 mmHg 13%
    15:00 +43°C° 0 mm 7 mps 747 mmHg 13%
    16:00 +41°C° 0 mm 7 mps 747 mmHg 14%
    17:00 +40°C° 0 mm 6 mps 747 mmHg 14%
    18:00 +38°C° 0 mm 6 mps 748 mmHg 17%
    19:00 +35°C° 0 mm 6 mps 748 mmHg 19%
    20:00 +33°C° 0 mm 5 mps 749 mmHg 22%
    21:00 +32°C° 0 mm 5 mps 749 mmHg 25%
    22:00 +30°C° 0 mm 4 mps 749 mmHg 29%
    23:00 +29°C° 0 mm 3 mps 749 mmHg 33%

    24 September, Tuesday

    Time Temperature Precipitation Wind Pressure Humidity
    00:00 +28°C° 0 mm 3 mps 749 mmHg 36%
    01:00 +27°C° 0 mm 3 mps 749 mmHg 39%
    02:00 +26°C° 0 mm 3 mps 748 mmHg 41%
    03:00 +26°C° 0 mm 3 mps 748 mmHg 45%
    04:00 +25°C° 0 mm 3 mps 748 mmHg 48%
    05:00 +24°C° 0 mm 3 mps 748 mmHg 52%
    06:00 +26°C° 0 mm 3 mps 749 mmHg 46%
    07:00 +28°C° 0 mm 4 mps 749 mmHg 41%
    08:00 +30°C° 0 mm 4 mps 749 mmHg 35%
    09:00 +33°C° 0 mm 5 mps 749 mmHg 29%
    10:00 +35°C° 0 mm 6 mps 749 mmHg 24%
    11:00 +39°C° 0 mm 6 mps 749 mmHg 18%
    12:00 +40°C° 0 mm 6 mps 748 mmHg 15%
    13:00 +42°C° 0 mm 6 mps 748 mmHg 12%
    14:00 +44°C° 0 mm 6 mps 747 mmHg 10%
    15:00 +42°C° 0 mm 6 mps 747 mmHg 10%
    16:00 +41°C° 0 mm 6 mps 747 mmHg 10%
    17:00 +40°C° 0 mm 6 mps 747 mmHg 10%
    18:00 +38°C° 0 mm 6 mps 747 mmHg 13%
    19:00 +35°C° 0 mm 6 mps 748 mmHg 16%
    20:00 +33°C° 0 mm 6 mps 748 mmHg 20%
    21:00 +32°C° 0 mm 5 mps 748 mmHg 22%
    22:00 +29°C° 0 mm 4 mps 748 mmHg 24%
    23:00 +28°C° 0 mm 4 mps 749 mmHg 27%
    Show more